Time,TemperatureF,DewpointF,PressureIn,WindDirection,WindDirectionDegrees,WindSpeedMPH,WindSpeedGustMPH,Humidity,HourlyPrecipIn,Conditions,Clouds,dailyrainin,SolarRadiationWatts/m^2,SoftwareType,DateUTC
2013-03-15 00:02:00,50.7,28.4,29.96,SSW,205,9.0,9.0,42,0.00,,,0.00,0.0,meteohub,2013-03-15 05:02:00,
2013-03-15 00:07:00,50.5,28.2,29.95,SSW,205,9.0,9.0,42,0.00,,,0.00,0.0,meteohub,2013-03-15 05:07:00,
2013-03-15 00:12:00,50.2,28.6,29.95,SSW,205,8.0,10.0,43,0.00,,,0.00,0.0,meteohub,2013-03-15 05:12:00,
2013-03-15 00:17:00,49.5,28.4,29.94,SSW,205,9.0,10.0,44,0.00,,,0.00,0.0,meteohub,2013-03-15 05:17:00,
2013-03-15 00:22:00,48.9,28.6,29.94,SSW,205,9.0,9.0,45,0.00,,,0.00,0.0,meteohub,2013-03-15 05:22:00,
2013-03-15 00:28:00,48.6,28.2,29.94,SSW,205,9.0,10.0,45,0.00,,,0.00,0.0,meteohub,2013-03-15 05:28:00,
2013-03-15 00:33:00,47.7,28.4,29.94,SSW,205,9.0,10.0,47,0.00,,,0.00,0.0,meteohub,2013-03-15 05:33:00,
2013-03-15 00:38:00,46.9,28.2,29.94,SSW,205,9.0,10.0,48,0.00,,,0.00,0.0,meteohub,2013-03-15 05:38:00,
2013-03-15 00:43:00,46.8,28.6,29.95,SSW,205,10.0,10.0,49,0.00,,,0.00,0.0,meteohub,2013-03-15 05:43:00,
2013-03-15 00:48:00,46.6,28.9,29.94,SW,215,12.0,12.0,50,0.00,,,0.00,0.0,meteohub,2013-03-15 05:48:00,
2013-03-15 00:53:00,46.8,29.1,29.95,SW,224,12.0,12.0,50,0.00,,,0.00,0.0,meteohub,2013-03-15 05:53:00,
2013-03-15 00:58:00,47.1,29.5,29.94,SW,232,12.0,12.0,50,0.00,,,0.00,0.0,meteohub,2013-03-15 05:58:00,
2013-03-15 01:03:00,47.1,29.5,29.94,SW,232,12.0,13.0,50,0.00,,,0.00,0.0,meteohub,2013-03-15 06:03:00,
2013-03-15 01:08:00,47.5,29.8,29.94,SW,233,12.0,13.0,50,0.00,,,0.00,0.0,meteohub,2013-03-15 06:08:00,
2013-03-15 01:13:00,47.1,29.5,29.94,SW,234,10.0,13.0,50,0.00,,,0.00,0.0,meteohub,2013-03-15 06:13:00,
2013-03-15 01:18:00,46.6,29.5,29.94,SW,234,10.0,13.0,51,0.00,,,0.00,0.0,meteohub,2013-03-15 06:18:00,
2013-03-15 01:23:00,46.0,29.5,29.94,SW,234,12.0,13.0,52,0.00,,,0.00,0.0,meteohub,2013-03-15 06:23:00,
2013-03-15 01:28:00,46.0,29.8,29.94,SW,234,11.0,12.0,53,0.00,,,0.00,0.0,meteohub,2013-03-15 06:28:00,
2013-03-15 01:34:00,45.9,29.7,29.94,WSW,240,11.0,12.0,53,0.00,,,0.00,0.0,meteohub,2013-03-15 06:34:00,
2013-03-15 01:39:00,45.7,29.5,29.93,WSW,240,11.0,13.0,53,0.00,,,0.00,0.0,meteohub,2013-03-15 06:39:00,
2013-03-15 01:44:00,45.7,30.0,29.94,WSW,240,11.0,13.0,54,0.00,,,0.00,0.0,meteohub,2013-03-15 06:44:00,
2013-03-15 01:49:00,45.7,30.0,29.93,WSW,240,11.0,13.0,54,0.00,,,0.00,0.0,meteohub,2013-03-15 06:49:00,
2013-03-15 01:54:00,45.7,30.0,29.93,WSW,240,11.0,12.0,54,0.00,,,0.00,0.0,meteohub,2013-03-15 06:54:00,
2013-03-15 01:59:00,45.3,29.7,29.93,WSW,243,12.0,12.0,54,0.00,,,0.00,0.0,meteohub,2013-03-15 06:59:00,
2013-03-15 02:04:00,45.9,30.2,29.92,WSW,244,11.0,12.0,54,0.00,,,0.00,0.0,meteohub,2013-03-15 07:04:00,
2013-03-15 02:09:00,46.0,30.4,29.92,WSW,244,11.0,13.0,54,0.00,,,0.00,0.0,meteohub,2013-03-15 07:09:00,
2013-03-15 02:14:00,46.0,30.4,29.91,WSW,243,11.0,13.0,54,0.00,,,0.00,0.0,meteohub,2013-03-15 07:14:00,
2013-03-15 02:20:00,46.6,30.4,29.91,WSW,244,11.0,13.0,53,0.00,,,0.00,0.0,meteohub,2013-03-15 07:20:00,
2013-03-15 02:25:00,46.9,30.2,29.91,WSW,244,11.0,12.0,52,0.00,,,0.00,0.0,meteohub,2013-03-15 07:25:00,
2013-03-15 02:30:00,46.8,30.0,29.91,WSW,243,11.0,12.0,52,0.00,,,0.00,0.0,meteohub,2013-03-15 07:30:00,
2013-03-15 02:35:00,46.2,30.0,29.91,WSW,239,9.0,12.0,53,0.00,,,0.00,0.0,meteohub,2013-03-15 07:35:00,
2013-03-15 02:40:00,45.3,29.7,29.91,SW,233,10.0,12.0,54,0.00,,,0.00,0.0,meteohub,2013-03-15 07:40:00,
2013-03-15 02:45:00,44.1,28.9,29.91,SW,229,11.0,11.0,55,0.00,,,0.00,0.0,meteohub,2013-03-15 07:45:00,
2013-03-15 02:50:00,43.2,29.3,29.91,SW,229,12.0,12.0,58,0.00,,,0.00,0.0,meteohub,2013-03-15 07:50:00,
2013-03-15 02:55:00,43.0,29.7,29.91,WSW,239,15.0,15.0,59,0.00,,,0.00,0.0,meteohub,2013-03-15 07:55:00,
2013-03-15 03:00:00,43.5,30.2,29.91,WSW,240,12.0,15.0,59,0.00,,,0.00,0.0,meteohub,2013-03-15 08:00:00,
2013-03-15 03:06:00,44.2,30.4,29.91,WSW,238,12.0,15.0,58,0.00,,,0.00,0.0,meteohub,2013-03-15 08:06:00,
2013-03-15 03:11:00,44.6,30.4,29.90,WSW,237,13.0,15.0,57,0.00,,,0.00,0.0,meteohub,2013-03-15 08:11:00,
2013-03-15 03:16:00,45.1,30.4,29.91,WSW,241,13.0,15.0,56,0.00,,,0.00,0.0,meteohub,2013-03-15 08:16:00,
2013-03-15 03:21:00,45.3,30.6,29.90,WSW,239,12.0,15.0,56,0.00,,,0.00,0.0,meteohub,2013-03-15 08:21:00,
2013-03-15 03:27:00,46.0,30.7,29.90,WSW,237,12.0,15.0,55,0.00,,,0.00,0.0,meteohub,2013-03-15 08:27:00,
2013-03-15 03:32:00,46.0,31.3,29.90,WSW,240,12.0,15.0,56,0.00,,,0.00,0.0,meteohub,2013-03-15 08:32:00,
2013-03-15 03:37:00,45.9,31.1,29.90,WSW,243,11.0,14.0,56,0.00,,,0.00,0.0,meteohub,2013-03-15 08:37:00,
2013-03-15 03:42:00,45.9,31.1,29.90,WSW,244,12.0,13.0,56,0.00,,,0.00,0.0,meteohub,2013-03-15 08:42:00,
2013-03-15 03:47:00,45.9,31.1,29.89,WSW,244,12.0,13.0,56,0.00,,,0.00,0.0,meteohub,2013-03-15 08:47:00,
2013-03-15 03:52:00,45.9,31.1,29.89,WSW,240,11.0,14.0,56,0.00,,,0.00,0.0,meteohub,2013-03-15 08:52:00,
2013-03-15 03:57:00,45.7,31.3,29.89,WSW,244,11.0,14.0,57,0.00,,,0.00,0.0,meteohub,2013-03-15 08:57:00,
2013-03-15 04:02:00,45.3,30.9,29.89,WSW,243,10.0,14.0,57,0.00,,,0.00,0.0,meteohub,2013-03-15 09:02:00,
2013-03-15 04:07:00,45.7,31.3,29.88,WSW,246,12.0,15.0,57,0.00,,,0.00,0.0,meteohub,2013-03-15 09:07:00,
2013-03-15 04:12:00,45.9,31.1,29.88,WSW,239,11.0,15.0,56,0.00,,,0.00,0.0,meteohub,2013-03-15 09:12:00,
2013-03-15 04:17:00,45.9,31.1,29.88,WSW,244,11.0,15.0,56,0.00,,,0.00,0.0,meteohub,2013-03-15 09:17:00,
2013-03-15 04:22:00,45.7,30.9,29.87,WSW,244,11.0,14.0,56,0.00,,,0.00,0.0,meteohub,2013-03-15 09:22:00,
2013-03-15 04:27:00,45.1,30.7,29.86,WSW,242,11.0,14.0,57,0.00,,,0.00,0.0,meteohub,2013-03-15 09:27:00,
2013-03-15 04:32:00,45.0,30.6,29.86,WSW,243,12.0,13.0,57,0.00,,,0.00,0.0,meteohub,2013-03-15 09:32:00,
2013-03-15 04:37:00,45.0,30.6,29.86,WSW,247,12.0,13.0,57,0.00,,,0.00,0.0,meteohub,2013-03-15 09:37:00,
2013-03-15 04:43:00,44.6,30.7,29.86,WSW,247,11.0,13.0,58,0.00,,,0.00,0.0,meteohub,2013-03-15 09:43:00,
2013-03-15 04:48:00,44.2,30.4,29.86,WSW,250,13.0,13.0,58,0.00,,,0.00,0.0,meteohub,2013-03-15 09:48:00,
2013-03-15 04:53:00,44.8,30.6,29.86,WSW,253,12.0,15.0,57,0.00,,,0.00,0.0,meteohub,2013-03-15 09:53:00,
2013-03-15 04:58:00,44.2,30.0,29.86,WSW,252,10.0,15.0,57,0.00,,,0.00,0.0,meteohub,2013-03-15 09:58:00,
2013-03-15 05:03:00,43.7,29.8,29.85,WSW,255,9.0,15.0,58,0.00,,,0.00,0.0,meteohub,2013-03-15 10:03:00,
2013-03-15 05:08:00,43.9,30.0,29.85,WSW,257,10.0,14.0,58,0.00,,,0.00,0.0,meteohub,2013-03-15 10:08:00,
2013-03-15 05:13:00,44.2,30.0,29.85,WSW,254,10.0,12.0,57,0.00,,,0.00,0.0,meteohub,2013-03-15 10:13:00,
2013-03-15 05:18:00,44.6,29.8,29.85,WSW,258,12.0,12.0,56,0.00,,,0.00,0.0,meteohub,2013-03-15 10:18:00,
2013-03-15 05:23:00,45.3,30.0,29.85,WSW,255,13.0,13.0,55,0.00,,,0.00,0.0,meteohub,2013-03-15 10:23:00,
2013-03-15 05:28:00,45.5,29.8,29.84,WSW,256,12.0,14.0,54,0.00,,,0.00,0.0,meteohub,2013-03-15 10:28:00,
2013-03-15 05:33:00,45.1,29.5,29.84,West,259,12.0,14.0,54,0.00,,,0.00,0.0,meteohub,2013-03-15 10:33:00,
2013-03-15 05:38:00,45.1,29.5,29.84,West,260,11.0,15.0,54,0.00,,,0.00,0.0,meteohub,2013-03-15 10:38:00,
2013-03-15 05:43:00,45.0,29.8,29.84,WSW,257,13.0,15.0,55,0.00,,,0.00,0.0,meteohub,2013-03-15 10:43:00,
2013-03-15 05:48:00,45.0,29.8,29.84,WSW,257,13.0,15.0,55,0.00,,,0.00,0.0,meteohub,2013-03-15 10:48:00,
2013-03-15 05:53:00,45.1,29.5,29.84,WSW,257,13.0,14.0,54,0.00,,,0.00,0.0,meteohub,2013-03-15 10:53:00,
2013-03-15 05:59:00,45.3,29.7,29.84,WSW,254,13.0,14.0,54,0.00,,,0.00,0.0,meteohub,2013-03-15 10:59:00,
2013-03-15 06:04:00,45.5,29.8,29.84,WSW,256,11.0,14.0,54,0.00,,,0.00,0.0,meteohub,2013-03-15 11:04:00,
2013-03-15 06:09:00,45.3,29.7,29.84,WSW,257,12.0,14.0,54,0.00,,,0.00,0.0,meteohub,2013-03-15 11:09:00,
2013-03-15 06:14:00,45.1,29.5,29.84,West,265,11.0,14.0,54,0.00,,,0.00,0.0,meteohub,2013-03-15 11:14:00,
2013-03-15 06:19:00,45.0,29.3,29.84,West,261,11.0,14.0,54,0.00,,,0.00,0.0,meteohub,2013-03-15 11:19:00,
2013-03-15 06:24:00,45.3,29.7,29.84,West,260,12.0,14.0,54,0.00,,,0.00,0.0,meteohub,2013-03-15 11:24:00,
2013-03-15 06:29:00,45.7,29.5,29.83,West,259,12.0,14.0,53,0.00,,,0.00,0.0,meteohub,2013-03-15 11:29:00,
2013-03-15 06:34:00,45.1,29.5,29.83,WSW,257,10.0,14.0,54,0.00,,,0.00,0.0,meteohub,2013-03-15 11:34:00,
2013-03-15 06:39:00,45.1,29.5,29.83,WSW,253,10.0,14.0,54,0.00,,,0.00,0.0,meteohub,2013-03-15 11:39:00,
2013-03-15 06:44:00,45.3,29.1,29.83,WSW,254,11.0,13.0,53,0.00,,,0.00,0.0,meteohub,2013-03-15 11:44:00,
2013-03-15 06:49:00,45.3,29.1,29.83,WSW,258,12.0,13.0,53,0.00,,,0.00,0.0,meteohub,2013-03-15 11:49:00,
2013-03-15 06:54:00,45.7,29.5,29.83,West,261,12.0,13.0,53,0.00,,,0.00,0.0,meteohub,2013-03-15 11:54:00,
2013-03-15 06:59:00,46.0,29.5,29.83,West,261,12.0,13.0,52,0.00,,,0.00,0.0,meteohub,2013-03-15 11:59:00,
2013-03-15 07:04:00,46.8,29.7,29.82,West,262,14.0,14.0,51,0.00,,,0.00,0.0,meteohub,2013-03-15 12:04:00,
2013-03-15 07:09:00,47.1,29.5,29.82,West,259,13.0,15.0,50,0.00,,,0.00,0.0,meteohub,2013-03-15 12:09:00,
2013-03-15 07:14:00,47.3,29.7,29.82,West,261,14.0,15.0,50,0.00,,,0.00,0.0,meteohub,2013-03-15 12:14:00,
2013-03-15 07:19:00,47.3,29.7,29.82,West,262,12.0,15.0,50,0.00,,,0.00,0.0,meteohub,2013-03-15 12:19:00,
2013-03-15 07:25:00,47.1,29.5,29.82,West,259,11.0,15.0,50,0.00,,,0.00,0.0,meteohub,2013-03-15 12:25:00,
2013-03-15 07:30:00,46.8,29.1,29.82,WSW,258,12.0,15.0,50,0.00,,,0.00,0.0,meteohub,2013-03-15 12:30:00,
2013-03-15 07:35:00,46.4,29.3,29.81,West,259,11.0,14.0,51,0.00,,,0.00,0.0,meteohub,2013-03-15 12:35:00,
2013-03-15 07:40:00,46.0,28.9,29.81,WSW,257,13.0,14.0,51,0.00,,,0.00,0.0,meteohub,2013-03-15 12:40:00,
2013-03-15 07:45:00,46.0,28.9,29.81,WSW,253,11.0,13.0,51,0.00,,,0.00,0.0,meteohub,2013-03-15 12:45:00,
2013-03-15 07:50:00,45.9,28.8,29.81,WSW,256,12.0,14.0,51,0.00,,,0.00,0.0,meteohub,2013-03-15 12:50:00,
2013-03-15 07:55:00,45.7,28.6,29.81,WSW,258,12.0,14.0,51,0.00,,,0.00,0.0,meteohub,2013-03-15 12:55:00,
2013-03-15 08:00:00,45.9,28.8,29.81,WSW,254,11.0,14.0,51,0.00,,,0.00,5.0,meteohub,2013-03-15 13:00:00,
2013-03-15 08:05:00,45.5,28.9,29.81,WSW,255,11.0,14.0,52,0.00,,,0.00,9.0,meteohub,2013-03-15 13:05:00,
2013-03-15 08:10:00,45.1,28.9,29.81,WSW,252,9.0,13.0,53,0.00,,,0.00,12.0,meteohub,2013-03-15 13:10:00,
2013-03-15 08:15:00,44.6,28.9,29.81,WSW,244,8.0,13.0,54,0.00,,,0.00,16.0,meteohub,2013-03-15 13:15:00,
2013-03-15 08:20:00,43.7,29.1,29.81,WSW,240,7.0,12.0,56,0.00,,,0.00,28.0,meteohub,2013-03-15 13:20:00,
2013-03-15 08:25:00,43.5,29.7,29.81,WSW,240,10.0,11.0,58,0.00,,,0.00,39.0,meteohub,2013-03-15 13:25:00,
2013-03-15 08:30:00,44.6,30.4,29.81,WSW,242,9.0,11.0,57,0.00,,,0.00,54.0,meteohub,2013-03-15 13:30:00,
2013-03-15 08:35:00,45.3,30.6,29.81,WSW,249,8.0,11.0,56,0.00,,,0.00,70.0,meteohub,2013-03-15 13:35:00,
2013-03-15 08:40:00,46.2,30.9,29.81,WSW,255,8.0,11.0,55,0.00,,,0.00,88.0,meteohub,2013-03-15 13:40:00,
2013-03-15 08:45:00,47.5,31.6,29.81,WSW,257,9.0,11.0,54,0.00,,,0.00,109.0,meteohub,2013-03-15 13:45:00,
2013-03-15 08:51:00,48.9,31.6,29.81,WSW,257,9.0,11.0,51,0.00,,,0.00,130.0,meteohub,2013-03-15 13:51:00,
2013-03-15 08:56:00,50.4,32.0,29.81,WSW,257,11.0,12.0,49,0.00,,,0.00,149.0,meteohub,2013-03-15 13:56:00,
2013-03-15 09:01:00,51.4,31.8,29.80,WSW,258,10.0,12.0,47,0.00,,,0.00,169.0,meteohub,2013-03-15 14:01:00,
2013-03-15 09:06:00,52.3,32.7,29.81,WSW,257,8.0,12.0,47,0.00,,,0.00,195.0,meteohub,2013-03-15 14:06:00,
2013-03-15 09:11:00,53.4,33.1,29.81,WSW,249,10.0,12.0,46,0.00,,,0.00,214.0,meteohub,2013-03-15 14:11:00,
2013-03-15 09:16:00,54.7,33.8,29.81,WSW,244,9.0,12.0,45,0.00,,,0.00,232.0,meteohub,2013-03-15 14:16:00,
2013-03-15 09:22:00,55.6,34.0,29.81,WSW,243,10.0,13.0,44,0.00,,,0.00,251.0,meteohub,2013-03-15 14:22:00,
2013-03-15 09:27:00,56.1,34.0,29.81,WSW,248,11.0,13.0,43,0.00,,,0.00,269.0,meteohub,2013-03-15 14:27:00,
2013-03-15 09:32:00,56.8,34.0,29.80,WSW,245,10.0,14.0,42,0.00,,,0.00,288.0,meteohub,2013-03-15 14:32:00,
2013-03-15 09:37:00,57.6,34.0,29.80,WSW,251,10.0,14.0,41,0.00,,,0.00,302.0,meteohub,2013-03-15 14:37:00,
2013-03-15 09:42:00,58.5,34.2,29.80,WSW,250,10.0,14.0,40,0.00,,,0.00,322.0,meteohub,2013-03-15 14:42:00,
2013-03-15 09:47:00,59.0,34.7,29.80,WSW,244,11.0,14.0,40,0.00,,,0.00,341.0,meteohub,2013-03-15 14:47:00,
2013-03-15 09:52:00,59.5,35.8,29.79,SW,229,9.0,14.0,41,0.00,,,0.00,360.0,meteohub,2013-03-15 14:52:00,
2013-03-15 09:57:00,60.6,34.2,29.79,SW,219,15.0,15.0,37,0.00,,,0.00,373.0,meteohub,2013-03-15 14:57:00,
2013-03-15 10:02:00,61.0,35.8,29.79,SW,227,12.0,16.0,39,0.00,,,0.00,397.0,meteohub,2013-03-15 15:02:00,
2013-03-15 10:07:00,61.7,36.5,29.79,SW,219,13.0,17.0,39,0.00,,,0.00,415.0,meteohub,2013-03-15 15:07:00,
2013-03-15 10:12:00,62.4,35.1,29.79,SW,220,10.0,17.0,36,0.00,,,0.00,427.0,meteohub,2013-03-15 15:12:00,
2013-03-15 10:17:00,63.9,35.6,29.78,WSW,246,11.0,18.0,35,0.00,,,0.00,450.0,meteohub,2013-03-15 15:17:00,
2013-03-15 10:22:00,65.3,35.4,29.78,SW,236,14.0,18.0,33,0.00,,,0.00,466.0,meteohub,2013-03-15 15:22:00,
2013-03-15 10:27:00,66.6,34.2,29.78,WSW,242,17.0,17.0,30,0.00,,,0.00,480.0,meteohub,2013-03-15 15:27:00,
2013-03-15 10:33:00,66.9,34.5,29.78,SW,234,16.0,21.0,30,0.00,,,0.00,501.0,meteohub,2013-03-15 15:33:00,
2013-03-15 10:38:00,67.3,35.6,29.78,SW,232,16.0,21.0,31,0.00,,,0.00,517.0,meteohub,2013-03-15 15:38:00,
2013-03-15 10:43:00,68.4,34.0,29.78,WSW,239,18.0,21.0,28,0.00,,,0.00,541.0,meteohub,2013-03-15 15:43:00,
2013-03-15 10:48:00,69.1,33.6,29.77,WSW,249,20.0,20.0,27,0.00,,,0.00,570.0,meteohub,2013-03-15 15:48:00,
2013-03-15 10:53:00,69.4,33.1,29.77,WSW,241,15.0,23.0,26,0.00,,,0.00,575.0,meteohub,2013-03-15 15:53:00,
2013-03-15 10:58:00,70.3,32.9,29.77,SW,236,20.0,23.0,25,0.00,,,0.00,599.0,meteohub,2013-03-15 15:58:00,
2013-03-15 11:03:00,70.9,31.3,29.77,WSW,243,17.0,23.0,23,0.00,,,0.00,591.0,meteohub,2013-03-15 16:03:00,
2013-03-15 11:08:00,71.1,31.5,29.77,SW,232,22.0,24.0,23,0.00,,,0.00,603.0,meteohub,2013-03-15 16:08:00,
2013-03-15 11:13:00,71.8,32.0,29.76,WSW,240,21.0,24.0,23,0.00,,,0.00,580.0,meteohub,2013-03-15 16:13:00,
2013-03-15 11:18:00,72.1,33.4,29.76,WSW,239,16.0,24.0,24,0.00,,,0.00,587.0,meteohub,2013-03-15 16:18:00,
2013-03-15 11:23:00,72.7,32.7,29.75,SW,236,17.0,25.0,23,0.00,,,0.00,596.0,meteohub,2013-03-15 16:23:00,
2013-03-15 11:28:00,72.9,32.9,29.75,WSW,247,19.0,25.0,23,0.00,,,0.00,624.0,meteohub,2013-03-15 16:28:00,
2013-03-15 11:33:00,73.2,32.2,29.75,WSW,243,17.0,23.0,22,0.00,,,0.00,455.0,meteohub,2013-03-15 16:33:00,
2013-03-15 11:39:00,73.4,32.2,29.75,SW,229,22.0,23.0,22,0.00,,,0.00,610.0,meteohub,2013-03-15 16:39:00,
2013-03-15 11:44:00,73.8,32.5,29.75,WSW,240,21.0,23.0,22,0.00,,,0.00,675.0,meteohub,2013-03-15 16:44:00,
2013-03-15 11:49:00,74.1,32.9,29.74,SW,230,20.0,23.0,22,0.00,,,0.00,714.0,meteohub,2013-03-15 16:49:00,
2013-03-15 11:54:00,75.0,32.4,29.74,WSW,248,16.0,24.0,21,0.00,,,0.00,758.0,meteohub,2013-03-15 16:54:00,
2013-03-15 11:59:00,75.4,31.5,29.73,WSW,245,15.0,24.0,20,0.00,,,0.00,729.0,meteohub,2013-03-15 16:59:00,
2013-03-15 12:04:00,75.6,31.6,29.73,WSW,238,14.0,24.0,20,0.00,,,0.00,724.0,meteohub,2013-03-15 17:04:00,
2013-03-15 12:09:00,76.1,30.9,29.73,SW,229,14.0,22.0,19,0.00,,,0.00,747.0,meteohub,2013-03-15 17:09:00,
2013-03-15 12:14:00,76.1,30.9,29.73,WSW,258,21.0,31.0,19,0.00,,,0.00,763.0,meteohub,2013-03-15 17:14:00,
2013-03-15 12:19:00,76.8,27.1,29.73,West,269,12.0,33.0,16,0.00,,,0.00,775.0,meteohub,2013-03-15 17:19:00,
2013-03-15 12:24:00,77.5,27.9,29.73,WSW,253,16.0,33.0,16,0.00,,,0.00,789.0,meteohub,2013-03-15 17:24:00,
2013-03-15 12:29:00,77.5,27.9,29.72,SW,230,9.0,33.0,16,0.00,,,0.00,809.0,meteohub,2013-03-15 17:29:00,
2013-03-15 12:35:00,78.1,28.2,29.72,SW,234,11.0,20.0,16,0.00,,,0.00,840.0,meteohub,2013-03-15 17:35:00,
2013-03-15 12:40:00,78.4,27.0,29.72,WSW,242,13.0,18.0,15,0.00,,,0.00,851.0,meteohub,2013-03-15 17:40:00,
2013-03-15 12:45:00,78.6,23.7,29.71,West,269,8.0,17.0,13,0.00,,,0.00,772.0,meteohub,2013-03-15 17:45:00,
2013-03-15 12:50:00,78.4,21.6,29.71,WNW,300,7.0,17.0,12,0.00,,,0.00,510.0,meteohub,2013-03-15 17:50:00,
2013-03-15 12:55:00,78.3,23.4,29.71,West,274,9.0,17.0,13,0.00,,,0.00,861.0,meteohub,2013-03-15 17:55:00,
2013-03-15 13:00:00,78.8,23.7,29.71,West,275,11.0,16.0,13,0.00,,,0.00,800.0,meteohub,2013-03-15 18:00:00,
2013-03-15 13:05:00,79.0,22.1,29.70,WSW,257,8.0,16.0,12,0.00,,,0.00,780.0,meteohub,2013-03-15 18:05:00,
2013-03-15 13:10:00,79.0,23.9,29.70,SW,233,4.0,14.0,13,0.00,,,0.00,788.0,meteohub,2013-03-15 18:10:00,
2013-03-15 13:15:00,79.3,24.3,29.70,West,265,11.0,15.0,13,0.00,,,0.00,870.0,meteohub,2013-03-15 18:15:00,
2013-03-15 13:20:00,79.9,22.8,29.69,WSW,244,6.0,15.0,12,0.00,,,0.00,847.0,meteohub,2013-03-15 18:20:00,
2013-03-15 13:25:00,80.4,21.0,29.69,West,281,7.0,15.0,11,0.00,,,0.00,867.0,meteohub,2013-03-15 18:25:00,
2013-03-15 13:30:00,80.4,21.0,29.69,NW,307,6.0,14.0,11,0.00,,,0.00,598.0,meteohub,2013-03-15 18:30:00,
2013-03-15 13:36:00,80.1,20.8,29.69,West,277,2.0,12.0,11,0.00,,,0.00,679.0,meteohub,2013-03-15 18:36:00,
2013-03-15 13:41:00,79.3,20.3,29.68,West,281,0.0,10.0,11,0.00,,,0.00,434.0,meteohub,2013-03-15 18:41:00,
2013-03-15 13:46:00,80.1,20.8,29.68,West,267,5.0,12.0,11,0.00,,,0.00,803.0,meteohub,2013-03-15 18:46:00,
2013-03-15 13:51:00,80.4,18.9,29.68,WNW,302,6.0,12.0,10,0.00,,,0.00,893.0,meteohub,2013-03-15 18:51:00,
2013-03-15 13:57:00,81.0,19.2,29.68,West,273,8.0,12.0,10,0.00,,,0.00,919.0,meteohub,2013-03-15 18:57:00,
2013-03-15 14:02:00,81.1,19.4,29.67,WNW,298,2.0,13.0,10,0.00,,,0.00,882.0,meteohub,2013-03-15 19:02:00,
2013-03-15 14:07:00,81.0,19.2,29.67,NNW,340,4.0,13.0,10,0.00,,,0.00,882.0,meteohub,2013-03-15 19:07:00,
2013-03-15 14:12:00,81.1,16.9,29.66,NW,323,8.0,14.0,9,0.00,,,0.00,795.0,meteohub,2013-03-15 19:12:00,
2013-03-15 14:17:00,80.4,18.9,29.66,North,355,7.0,14.0,10,0.00,,,0.00,796.0,meteohub,2013-03-15 19:17:00,
2013-03-15 14:22:00,81.0,19.2,29.65,NNE,28,2.0,14.0,10,0.00,,,0.00,874.0,meteohub,2013-03-15 19:22:00,
2013-03-15 14:27:00,81.9,19.9,29.65,WNW,288,7.0,11.0,10,0.00,,,0.00,872.0,meteohub,2013-03-15 19:27:00,
2013-03-15 14:32:00,82.0,17.6,29.65,WNW,296,3.0,8.0,9,0.00,,,0.00,742.0,meteohub,2013-03-15 19:32:00,
2013-03-15 14:37:00,81.7,17.4,29.64,NW,306,8.0,8.0,9,0.00,,,0.00,824.0,meteohub,2013-03-15 19:37:00,
2013-03-15 14:42:00,81.1,14.2,29.64,WNW,301,2.0,10.0,8,0.00,,,0.00,856.0,meteohub,2013-03-15 19:42:00,
2013-03-15 14:47:00,81.5,14.5,29.63,NW,314,11.0,11.0,8,0.00,,,0.00,860.0,meteohub,2013-03-15 19:47:00,
2013-03-15 14:52:00,81.5,11.5,29.63,NNW,335,7.0,12.0,7,0.00,,,0.00,854.0,meteohub,2013-03-15 19:52:00,
2013-03-15 14:57:00,82.0,11.8,29.63,NNW,330,5.0,14.0,7,0.00,,,0.00,842.0,meteohub,2013-03-15 19:57:00,
2013-03-15 15:02:00,82.0,11.8,29.63,NW,304,6.0,14.0,7,0.00,,,0.00,830.0,meteohub,2013-03-15 20:02:00,
2013-03-15 15:07:00,82.0,11.8,29.62,WNW,299,6.0,12.0,7,0.00,,,0.00,833.0,meteohub,2013-03-15 20:07:00,
2013-03-15 15:12:00,81.9,11.8,29.62,NNW,328,3.0,11.0,7,0.00,,,0.00,828.0,meteohub,2013-03-15 20:12:00,
2013-03-15 15:17:00,82.0,11.8,29.61,NNE,19,1.0,11.0,7,0.00,,,0.00,817.0,meteohub,2013-03-15 20:17:00,
2013-03-15 15:22:00,82.4,15.3,29.61,NNE,19,3.0,11.0,8,0.00,,,0.00,810.0,meteohub,2013-03-15 20:22:00,
2013-03-15 15:27:00,82.4,12.2,29.61,NW,325,5.0,8.0,7,0.00,,,0.00,793.0,meteohub,2013-03-15 20:27:00,
2013-03-15 15:32:00,82.0,11.8,29.60,NW,323,2.0,9.0,7,0.00,,,0.00,772.0,meteohub,2013-03-15 20:32:00,
2013-03-15 15:37:00,82.6,12.2,29.60,NW,323,2.0,9.0,7,0.00,,,0.00,779.0,meteohub,2013-03-15 20:37:00,
2013-03-15 15:43:00,82.6,12.2,29.60,NW,323,0.0,8.0,7,0.00,,,0.00,770.0,meteohub,2013-03-15 20:43:00,
2013-03-15 15:48:00,82.9,15.6,29.59,NW,323,0.0,4.0,8,0.00,,,0.00,712.0,meteohub,2013-03-15 20:48:00,
2013-03-15 15:53:00,83.3,15.8,29.59,NW,323,2.0,4.0,8,0.00,,,0.00,793.0,meteohub,2013-03-15 20:53:00,
2013-03-15 15:58:00,83.8,16.3,29.59,NNW,328,1.0,6.0,8,0.00,,,0.00,617.0,meteohub,2013-03-15 20:58:00,
2013-03-15 16:03:00,83.7,16.2,29.59,NNE,20,2.0,6.0,8,0.00,,,0.00,642.0,meteohub,2013-03-15 21:03:00,
2013-03-15 16:08:00,83.7,16.2,29.59,NNE,20,0.0,6.0,8,0.00,,,0.00,788.0,meteohub,2013-03-15 21:08:00,
2013-03-15 16:13:00,83.8,13.3,29.58,NW,317,6.0,6.0,7,0.00,,,0.00,766.0,meteohub,2013-03-15 21:13:00,
2013-03-15 16:18:00,83.3,15.8,29.58,WNW,295,6.0,8.0,8,0.00,,,0.00,722.0,meteohub,2013-03-15 21:18:00,
2013-03-15 16:23:00,83.1,12.7,29.58,WNW,301,3.0,10.0,7,0.00,,,0.00,754.0,meteohub,2013-03-15 21:23:00,
2013-03-15 16:28:00,83.3,15.8,29.58,WNW,285,6.0,10.0,8,0.00,,,0.00,543.0,meteohub,2013-03-15 21:28:00,
2013-03-15 16:33:00,82.9,15.6,29.58,WNW,292,2.0,11.0,8,0.00,,,0.00,691.0,meteohub,2013-03-15 21:33:00,
2013-03-15 16:39:00,83.5,16.0,29.57,West,260,3.0,11.0,8,0.00,,,0.00,649.0,meteohub,2013-03-15 21:39:00,
2013-03-15 16:44:00,83.1,15.8,29.58,West,260,1.0,11.0,8,0.00,,,0.00,693.0,meteohub,2013-03-15 21:44:00,
2013-03-15 16:49:00,83.5,16.0,29.57,West,260,2.0,9.0,8,0.00,,,0.00,710.0,meteohub,2013-03-15 21:49:00,
2013-03-15 16:54:00,83.7,16.2,29.57,North,10,1.0,9.0,8,0.00,,,0.00,503.0,meteohub,2013-03-15 21:54:00,
2013-03-15 16:59:00,83.7,13.1,29.57,North,10,2.0,7.0,7,0.00,,,0.00,587.0,meteohub,2013-03-15 21:59:00,
2013-03-15 17:04:00,83.7,16.2,29.57,North,10,1.0,7.0,8,0.00,,,0.00,612.0,meteohub,2013-03-15 22:04:00,
2013-03-15 17:09:00,83.8,13.3,29.57,NE,40,1.0,7.0,7,0.00,,,0.00,504.0,meteohub,2013-03-15 22:09:00,
2013-03-15 17:14:00,83.7,16.2,29.56,NE,40,0.0,6.0,8,0.00,,,0.00,385.0,meteohub,2013-03-15 22:14:00,
2013-03-15 17:19:00,83.8,16.3,29.56,North,355,4.0,6.0,8,0.00,,,0.00,353.0,meteohub,2013-03-15 22:19:00,
2013-03-15 17:24:00,83.1,15.8,29.56,NW,305,6.0,6.0,8,0.00,,,0.00,329.0,meteohub,2013-03-15 22:24:00,
2013-03-15 17:29:00,82.8,15.4,29.56,WNW,290,3.0,7.0,8,0.00,,,0.00,309.0,meteohub,2013-03-15 22:29:00,
2013-03-15 17:34:00,82.2,15.1,29.56,WNW,294,0.0,8.0,8,0.00,,,0.00,294.0,meteohub,2013-03-15 22:34:00,
2013-03-15 17:39:00,82.2,17.8,29.56,WNW,295,7.0,8.0,9,0.00,,,0.00,357.0,meteohub,2013-03-15 22:39:00,
2013-03-15 17:44:00,82.2,17.8,29.56,WNW,295,4.0,8.0,9,0.00,,,0.00,309.0,meteohub,2013-03-15 22:44:00,
2013-03-15 17:49:00,82.2,17.8,29.56,WNW,295,4.0,7.0,9,0.00,,,0.00,330.0,meteohub,2013-03-15 22:49:00,
2013-03-15 17:54:00,82.6,18.0,29.56,WNW,295,3.0,7.0,9,0.00,,,0.00,281.0,meteohub,2013-03-15 22:54:00,
2013-03-15 17:59:00,82.6,15.3,29.56,WNW,296,3.0,7.0,8,0.00,,,0.00,251.0,meteohub,2013-03-15 22:59:00,
2013-03-15 18:04:00,82.4,15.3,29.55,WNW,296,3.0,6.0,8,0.00,,,0.00,387.0,meteohub,2013-03-15 23:04:00,
2013-03-15 18:09:00,82.4,15.3,29.55,WNW,296,0.0,6.0,8,0.00,,,0.00,323.0,meteohub,2013-03-15 23:09:00,
2013-03-15 18:14:00,82.6,18.0,29.55,WNW,294,5.0,6.0,9,0.00,,,0.00,294.0,meteohub,2013-03-15 23:14:00,
2013-03-15 18:19:00,82.8,18.1,29.55,WNW,292,3.0,4.0,9,0.00,,,0.00,156.0,meteohub,2013-03-15 23:19:00,
2013-03-15 18:24:00,82.6,15.3,29.55,WNW,292,1.0,6.0,8,0.00,,,0.00,352.0,meteohub,2013-03-15 23:24:00,
2013-03-15 18:30:00,83.1,18.5,29.55,WNW,292,0.0,6.0,9,0.00,,,0.00,364.0,meteohub,2013-03-15 23:30:00,
2013-03-15 18:35:00,83.7,16.2,29.55,WNW,292,0.0,6.0,8,0.00,,,0.00,237.0,meteohub,2013-03-15 23:35:00,
2013-03-15 18:40:00,83.7,16.2,29.54,WNW,292,0.0,3.0,8,0.00,,,0.00,74.0,meteohub,2013-03-15 23:40:00,
2013-03-15 18:45:00,83.3,15.8,29.54,WNW,292,0.0,2.0,8,0.00,,,0.00,174.0,meteohub,2013-03-15 23:45:00,
2013-03-15 18:50:00,83.1,15.8,29.54,WNW,292,0.0,1.0,8,0.00,,,0.00,214.0,meteohub,2013-03-15 23:50:00,
2013-03-15 18:55:00,82.9,20.8,29.53,WNW,292,1.0,1.0,10,0.00,,,0.00,169.0,meteohub,2013-03-15 23:55:00,
2013-03-15 19:00:00,82.8,20.7,29.53,WNW,292,1.0,2.0,10,0.00,,,0.00,165.0,meteohub,2013-03-16 00:00:00,
2013-03-15 19:05:00,82.4,20.3,29.53,WNW,292,0.0,2.0,10,0.00,,,0.00,100.0,meteohub,2013-03-16 00:05:00,
2013-03-15 19:10:00,81.9,19.9,29.53,WNW,292,0.0,3.0,10,0.00,,,0.00,121.0,meteohub,2013-03-16 00:10:00,
2013-03-15 19:15:00,81.3,21.7,29.52,WNW,292,3.0,4.0,11,0.00,,,0.00,102.0,meteohub,2013-03-16 00:15:00,
2013-03-15 19:20:00,80.6,19.0,29.52,WNW,292,1.0,6.0,10,0.00,,,0.00,67.0,meteohub,2013-03-16 00:20:00,
2013-03-15 19:25:00,79.5,20.5,29.52,WNW,292,1.0,6.0,11,0.00,,,0.00,47.0,meteohub,2013-03-16 00:25:00,
2013-03-15 19:30:00,78.4,23.5,29.52,WNW,292,2.0,6.0,13,0.00,,,0.00,33.0,meteohub,2013-03-16 00:30:00,
2013-03-15 19:35:00,77.4,20.8,29.52,WNW,292,4.0,4.0,12,0.00,,,0.00,25.0,meteohub,2013-03-16 00:35:00,
2013-03-15 19:40:00,76.3,23.5,29.52,WNW,292,0.0,5.0,14,0.00,,,0.00,16.0,meteohub,2013-03-16 00:40:00,
2013-03-15 19:46:00,75.4,21.2,29.52,WNW,292,3.0,5.0,13,0.00,,,0.00,11.0,meteohub,2013-03-16 00:46:00,
2013-03-15 19:51:00,75.2,21.0,29.52,WNW,292,4.0,5.0,13,0.00,,,0.00,5.0,meteohub,2013-03-16 00:51:00,
2013-03-15 19:56:00,75.0,20.8,29.52,WNW,292,3.0,5.0,13,0.00,,,0.00,0.0,meteohub,2013-03-16 00:56:00,
2013-03-15 20:01:00,74.3,20.3,29.52,WNW,292,3.0,5.0,13,0.00,,,0.00,0.0,meteohub,2013-03-16 01:01:00,
2013-03-15 20:06:00,73.4,21.4,29.52,WNW,292,4.0,5.0,14,0.00,,,0.00,0.0,meteohub,2013-03-16 01:06:00,
2013-03-15 20:11:00,72.7,20.7,29.52,WNW,292,3.0,5.0,14,0.00,,,0.00,0.0,meteohub,2013-03-16 01:11:00,
2013-03-15 20:16:00,72.3,20.5,29.52,WNW,292,4.0,5.0,14,0.00,,,0.00,0.0,meteohub,2013-03-16 01:16:00,
2013-03-15 20:21:00,71.4,21.4,29.52,WNW,292,1.0,5.0,15,0.00,,,0.00,0.0,meteohub,2013-03-16 01:21:00,
2013-03-15 20:27:00,71.1,21.0,29.52,WNW,292,0.0,4.0,15,0.00,,,0.00,0.0,meteohub,2013-03-16 01:27:00,
2013-03-15 20:32:00,71.1,21.0,29.52,WNW,290,6.0,6.0,15,0.00,,,0.00,0.0,meteohub,2013-03-16 01:32:00,
2013-03-15 20:37:00,70.2,21.9,29.52,WNW,290,8.0,10.0,16,0.00,,,0.00,0.0,meteohub,2013-03-16 01:37:00,
2013-03-15 20:42:00,69.3,21.2,29.52,WNW,290,8.0,10.0,16,0.00,,,0.00,0.0,meteohub,2013-03-16 01:42:00,
2013-03-15 20:47:00,68.4,21.9,29.52,WNW,288,10.0,10.0,17,0.00,,,0.00,0.0,meteohub,2013-03-16 01:47:00,
2013-03-15 20:52:00,67.1,22.1,29.52,West,281,8.0,10.0,18,0.00,,,0.00,0.0,meteohub,2013-03-16 01:52:00,
2013-03-15 20:57:00,66.6,23.0,29.52,WNW,282,9.0,10.0,19,0.00,,,0.00,0.0,meteohub,2013-03-16 01:57:00,
2013-03-15 21:02:00,66.0,23.7,29.52,West,281,8.0,10.0,20,0.00,,,0.00,0.0,meteohub,2013-03-16 02:02:00,
2013-03-15 21:07:00,65.8,23.7,29.52,West,281,5.0,10.0,20,0.00,,,0.00,0.0,meteohub,2013-03-16 02:07:00,
2013-03-15 21:12:00,65.8,23.7,29.52,West,281,5.0,9.0,20,0.00,,,0.00,0.0,meteohub,2013-03-16 02:12:00,
2013-03-15 21:17:00,64.9,24.1,29.52,West,281,0.0,9.0,21,0.00,,,0.00,0.0,meteohub,2013-03-16 02:17:00,
2013-03-15 21:22:00,63.1,23.7,29.52,West,281,0.0,7.0,22,0.00,,,0.00,0.0,meteohub,2013-03-16 02:22:00,
2013-03-15 21:27:00,62.6,24.3,29.52,West,281,4.0,6.0,23,0.00,,,0.00,0.0,meteohub,2013-03-16 02:27:00,
2013-03-15 21:32:00,62.2,25.0,29.52,West,281,4.0,5.0,24,0.00,,,0.00,0.0,meteohub,2013-03-16 02:32:00,
2013-03-15 21:38:00,62.1,24.8,29.52,West,281,6.0,6.0,24,0.00,,,0.00,0.0,meteohub,2013-03-16 02:38:00,
2013-03-15 21:43:00,62.2,25.0,29.52,West,281,6.0,7.0,24,0.00,,,0.00,0.0,meteohub,2013-03-16 02:43:00,
2013-03-15 21:48:00,62.2,25.0,29.52,West,281,6.0,7.0,24,0.00,,,0.00,0.0,meteohub,2013-03-16 02:48:00,
2013-03-15 21:53:00,62.2,25.0,29.52,West,281,6.0,7.0,24,0.00,,,0.00,0.0,meteohub,2013-03-16 02:53:00,
2013-03-15 21:58:00,61.9,25.7,29.52,West,281,6.0,7.0,25,0.00,,,0.00,0.0,meteohub,2013-03-16 02:58:00,
2013-03-15 22:03:00,61.5,25.3,29.52,West,281,8.0,8.0,25,0.00,,,0.00,0.0,meteohub,2013-03-16 03:03:00,
2013-03-15 22:08:00,61.0,25.9,29.52,SW,222,9.0,9.0,26,0.00,,,0.00,0.0,meteohub,2013-03-16 03:08:00,
2013-03-15 22:13:00,58.8,25.7,29.51,SSW,207,10.0,10.0,28,0.00,,,0.00,0.0,meteohub,2013-03-16 03:13:00,
2013-03-15 22:18:00,58.3,26.2,29.52,SSW,205,10.0,11.0,29,0.00,,,0.00,0.0,meteohub,2013-03-16 03:18:00,
2013-03-15 22:23:00,57.6,26.4,29.52,SSW,209,12.0,12.0,30,0.00,,,0.00,0.0,meteohub,2013-03-16 03:23:00,
2013-03-15 22:28:00,57.6,26.4,29.52,SSW,213,10.0,12.0,30,0.00,,,0.00,0.0,meteohub,2013-03-16 03:28:00,
2013-03-15 22:34:00,56.7,26.4,29.52,SW,214,12.0,12.0,31,0.00,,,0.00,0.0,meteohub,2013-03-16 03:34:00,
2013-03-15 22:39:00,56.1,25.9,29.51,SW,216,12.0,13.0,31,0.00,,,0.00,0.0,meteohub,2013-03-16 03:39:00,
2013-03-15 22:44:00,55.8,26.4,29.51,SSW,213,12.0,13.0,32,0.00,,,0.00,0.0,meteohub,2013-03-16 03:44:00,
2013-03-15 22:49:00,55.9,26.4,29.51,SSW,212,13.0,14.0,32,0.00,,,0.00,0.0,meteohub,2013-03-16 03:49:00,
2013-03-15 22:54:00,55.2,26.6,29.50,SSW,211,12.0,15.0,33,0.00,,,0.00,0.0,meteohub,2013-03-16 03:54:00,
2013-03-15 22:59:00,55.2,26.6,29.50,SSW,209,11.0,15.0,33,0.00,,,0.00,0.0,meteohub,2013-03-16 03:59:00,
2013-03-15 23:00:00,55.2,26.6,29.50,SSW,207,9.0,15.0,33,0.00,,,0.00,0.0,meteohub,2013-03-16 04:00:00,
2013-03-15 23:05:00,55.9,26.4,29.49,SSW,205,10.0,14.0,32,0.00,,,0.00,0.0,meteohub,2013-03-16 04:05:00,
2013-03-15 23:10:00,56.3,26.8,29.50,SSW,211,10.0,13.0,32,0.00,,,0.00,0.0,meteohub,2013-03-16 04:10:00,
2013-03-15 23:16:00,56.5,27.0,29.50,SW,217,11.0,12.0,32,0.00,,,0.00,0.0,meteohub,2013-03-16 04:16:00,
2013-03-15 23:21:00,56.7,27.1,29.50,SW,217,11.0,13.0,32,0.00,,,0.00,0.0,meteohub,2013-03-16 04:21:00,
2013-03-15 23:26:00,56.8,27.3,29.50,SW,219,10.0,13.0,32,0.00,,,0.00,0.0,meteohub,2013-03-16 04:26:00,
2013-03-15 23:31:00,56.3,27.5,29.49,SW,219,11.0,12.0,33,0.00,,,0.00,0.0,meteohub,2013-03-16 04:31:00,
2013-03-15 23:36:00,56.1,28.0,29.49,SW,219,12.0,12.0,34,0.00,,,0.00,0.0,meteohub,2013-03-16 04:36:00,
2013-03-15 23:42:00,56.3,28.2,29.49,SW,217,11.0,12.0,34,0.00,,,0.00,0.0,meteohub,2013-03-16 04:42:00,
2013-03-15 23:47:00,55.9,28.0,29.49,SW,218,10.0,12.0,34,0.00,,,0.00,0.0,meteohub,2013-03-16 04:47:00,
2013-03-15 23:52:00,55.6,28.4,29.49,SW,218,8.0,12.0,35,0.00,,,0.00,0.0,meteohub,2013-03-16 04:52:00,
2013-03-15 23:57:00,55.0,27.9,29.48,SW,219,9.0,12.0,35,0.00,,,0.00,0.0,meteohub,2013-03-16 04:57:00,